NWS106 UMKK-UUEE

Flight info

Callsign NWS106
Flight time N/A
Altitude 35000
Route PELUG3M PELUG DCT OTVOV DCT KEDUX DCT PIVAX DCT PIRUX DCT PISIM DCT PIDIN DCT ARANS/K0846F350 DCT PISIS DCT MIGTU T73 NAMIN NAMIN3E
Aircraft B738/M-SDE2E3FGHIRWXY/LB1

Departure

Time 2026-05-06 15:27
Airport Khrabrovo Airport (UMKK)

Arrival

Time N/A
Airport Sheremetyevo International Airport (UUEE)
Time Latitude Longitude Altitude Speed Heading
2026-05-06 14:59 54.88366 20.58449 38 ft 0 kts 157°
2026-05-06 15:19 54.88375 20.58442 38 ft 2 kts 157°
2026-05-06 15:20 54.88388 20.58433 37 ft 2 kts 168°
2026-05-06 15:20 54.88404 20.58432 37 ft 2 kts 190°
2026-05-06 15:20 54.88418 20.58440 37 ft 2 kts 210°
2026-05-06 15:20 54.88429 20.58455 37 ft 2 kts 229°
2026-05-06 15:21 54.88435 20.58469 37 ft 1 kts 242°
2026-05-06 15:21 54.88437 20.58478 37 ft 0 kts 243°
2026-05-06 15:22 54.88435 20.58471 37 ft 0 kts 243°
2026-05-06 15:23 54.88432 20.58462 37 ft 3 kts 241°
2026-05-06 15:23 54.88419 20.58421 37 ft 3 kts 239°
2026-05-06 15:23 54.88397 20.58365 36 ft 8 kts 234°
2026-05-06 15:23 54.88348 20.58252 35 ft 15 kts 233°
2026-05-06 15:24 54.88303 20.58106 36 ft 12 kts 245°
2026-05-06 15:24 54.88271 20.57984 37 ft 9 kts 246°
2026-05-06 15:24 54.88252 20.57911 38 ft 4 kts 245°
2026-05-06 15:24 54.88238 20.57858 39 ft 6 kts 247°
2026-05-06 15:25 54.88235 20.57767 39 ft 8 kts 302°
2026-05-06 15:25 54.88269 20.57716 39 ft 4 kts 332°
2026-05-06 15:25 54.88302 20.57688 39 ft 8 kts 336°
2026-05-06 15:25 54.88390 20.57623 39 ft 18 kts 338°
2026-05-06 15:26 54.88504 20.57531 39 ft 16 kts 342°
2026-05-06 15:26 54.88586 20.57634 39 ft 19 kts 62°
2026-05-06 15:26 54.88708 20.58103 35 ft 72 kts 65°
2026-05-06 15:26 54.88990 20.59192 36 ft 125 kts 64°
2026-05-06 15:27 54.89410 20.60832 72 ft 164 kts 64°
2026-05-06 15:27 54.89855 20.62647 615 ft 166 kts 65°
2026-05-06 15:27 54.90329 20.64506 1135 ft 172 kts 64°
2026-05-06 15:27 54.90850 20.66394 1588 ft 182 kts 65°
2026-05-06 15:28 54.91390 20.68504 1897 ft 203 kts 65°
2026-05-06 15:28 54.92001 20.70816 2376 ft 217 kts 65°
2026-05-06 15:28 54.92938 20.72965 3055 ft 231 kts 39°
2026-05-06 15:28 54.94487 20.73923 3565 ft 257 kts
2026-05-06 15:29 54.96233 20.72855 4245 ft 278 kts 327°
2026-05-06 15:29 54.97488 20.70305 4927 ft 290 kts 298°
2026-05-06 15:29 54.98321 20.66973 5667 ft 298 kts 294°
2026-05-06 15:29 54.99267 20.63789 6562 ft 299 kts 301°
2026-05-06 15:30 55.00477 20.60869 7465 ft 300 kts 310°
2026-05-06 15:30 55.01834 20.58221 8540 ft 293 kts 310°
2026-05-06 15:30 55.03198 20.55538 9322 ft 296 kts 309°
2026-05-06 15:30 55.04535 20.52889 10160 ft 296 kts 309°
2026-05-06 15:31 55.05950 20.50091 10533 ft 315 kts 309°
2026-05-06 15:31 55.07445 20.47134 10827 ft 334 kts 309°
2026-05-06 15:31 55.09017 20.44030 10997 ft 357 kts 310°
2026-05-06 15:32 55.12544 20.37266 11507 ft 392 kts 316°
2026-05-06 15:32 55.14682 20.34401 12313 ft 393 kts 326°
2026-05-06 15:32 55.17228 20.32401 12663 ft 408 kts 344°
2026-05-06 15:32 55.20006 20.31797 13597 ft 404 kts 355°
2026-05-06 15:33 55.22829 20.31526 13928 ft 415 kts 355°
2026-05-06 15:33 55.25707 20.31234 14691 ft 413 kts 355°
2026-05-06 15:33 55.28614 20.30942 15103 ft 421 kts 355°
2026-05-06 15:33 55.31514 20.30660 15748 ft 421 kts 355°
2026-05-06 15:34 55.34434 20.30382 16217 ft 426 kts 355°
2026-05-06 15:34 55.37426 20.30099 16802 ft 427 kts 355°
2026-05-06 15:34 55.40369 20.29822 17254 ft 432 kts 355°
2026-05-06 15:34 55.43399 20.29489 17780 ft 433 kts 352°
2026-05-06 15:35 55.46327 20.28706 18270 ft 434 kts 346°
2026-05-06 15:35 55.49244 20.27163 18714 ft 434 kts 335°
2026-05-06 15:35 55.51956 20.24839 19235 ft 434 kts 329°
2026-05-06 15:35 55.54625 20.22274 19588 ft 438 kts 329°
2026-05-06 15:36 55.57280 20.19735 20150 ft 437 kts 329°
2026-05-06 15:36 55.59980 20.17159 20423 ft 443 kts 329°
2026-05-06 15:36 55.62656 20.14601 21034 ft 441 kts 329°
2026-05-06 15:36 55.65385 20.11982 21252 ft 447 kts 329°
2026-05-06 15:37 55.68100 20.09374 21783 ft 446 kts 329°
2026-05-06 15:37 55.70835 20.06738 21962 ft 453 kts 329°
2026-05-06 15:37 55.73574 20.04097 22579 ft 449 kts 329°
2026-05-06 15:37 55.76346 20.01417 22722 ft 456 kts 329°
2026-05-06 15:38 55.79094 19.98758 23281 ft 453 kts 329°
2026-05-06 15:38 55.81914 19.96022 23408 ft 459 kts 329°
2026-05-06 15:38 55.84700 19.93316 23943 ft 456 kts 329°
2026-05-06 15:38 55.87477 19.90612 24059 ft 463 kts 329°
2026-05-06 15:39 55.90307 19.87854 24535 ft 461 kts 329°
2026-05-06 15:39 55.93126 19.85101 24685 ft 466 kts 329°
2026-05-06 15:39 55.95976 19.82312 25085 ft 465 kts 329°
2026-05-06 15:39 55.98789 19.79556 25313 ft 468 kts 329°
2026-05-06 15:40 56.01647 19.76750 25618 ft 469 kts 329°
2026-05-06 15:40 56.04486 19.73960 25959 ft 468 kts 329°
2026-05-06 15:40 56.07352 19.71138 26287 ft 468 kts 329°
2026-05-06 15:40 56.10204 19.68324 26637 ft 467 kts 329°
2026-05-06 15:41 56.13055 19.65508 26975 ft 467 kts 329°
2026-05-06 15:41 56.15939 19.62897 27307 ft 468 kts 334°
2026-05-06 15:41 56.18969 19.60885 27644 ft 469 kts 342°
2026-05-06 15:41 56.22173 19.59790 27943 ft 472 kts 353°
2026-05-06 15:42 56.25469 19.59800 28313 ft 473 kts
2026-05-06 15:42 56.28734 19.60577 28589 ft 476 kts
2026-05-06 15:42 56.31976 19.61915 28925 ft 476 kts 11°
2026-05-06 15:42 56.35216 19.63334 29250 ft 475 kts 11°
2026-05-06 15:43 56.38405 19.64703 29550 ft 474 kts 11°
2026-05-06 15:43 56.41596 19.66070 29859 ft 473 kts 11°
2026-05-06 15:43 56.44812 19.67454 30166 ft 472 kts 11°
2026-05-06 15:43 56.48016 19.68839 30463 ft 471 kts 11°
2026-05-06 15:44 56.51191 19.70213 30757 ft 470 kts 11°
2026-05-06 15:44 56.54333 19.71577 31040 ft 469 kts 11°
2026-05-06 15:44 56.57550 19.72976 31328 ft 468 kts 11°
2026-05-06 15:44 56.60705 19.74350 31606 ft 467 kts 11°
2026-05-06 15:45 56.63866 19.75730 31880 ft 466 kts 11°
2026-05-06 15:45 56.66987 19.77095 32146 ft 465 kts 11°
2026-05-06 15:45 56.70096 19.78458 32408 ft 464 kts 11°
2026-05-06 15:45 56.73259 19.79846 32669 ft 463 kts 11°
2026-05-06 15:46 56.76355 19.81207 32920 ft 462 kts 11°
2026-05-06 15:46 56.79476 19.82582 33168 ft 461 kts 11°
2026-05-06 15:46 56.82594 19.83958 33411 ft 460 kts 11°
2026-05-06 15:46 56.85696 19.85329 33649 ft 459 kts 11°
2026-05-06 15:47 56.88801 19.86704 33883 ft 458 kts 11°
2026-05-06 15:47 56.91893 19.88075 34110 ft 458 kts 11°
2026-05-06 15:47 56.94982 19.89447 34317 ft 457 kts 11°
2026-05-06 15:47 56.98021 19.90799 34502 ft 457 kts 11°
2026-05-06 15:48 57.01108 19.92210 34637 ft 459 kts 12°
2026-05-06 15:48 57.04178 19.93899 34769 ft 461 kts 14°
2026-05-06 15:48 57.07256 19.95730 34884 ft 463 kts 14°
2026-05-06 15:48 57.10335 19.97543 34938 ft 465 kts 14°
2026-05-06 15:49 57.16508 20.01137 34939 ft 465 kts 14°
2026-05-06 15:49 57.22662 20.04725 34939 ft 463 kts 14°
2026-05-06 15:50 57.28780 20.08297 34940 ft 463 kts 14°
2026-05-06 15:50 57.34904 20.11881 34939 ft 463 kts 14°
2026-05-06 15:51 57.41042 20.15485 34939 ft 464 kts 14°
2026-05-06 15:51 57.47179 20.19101 34943 ft 463 kts 14°
2026-05-06 15:52 57.53316 20.22729 34954 ft 463 kts 14°
2026-05-06 15:52 57.59449 20.26366 34963 ft 464 kts 14°
2026-05-06 15:53 57.65603 20.30029 34966 ft 464 kts 14°
2026-05-06 15:53 57.71721 20.33684 34966 ft 464 kts 14°
2026-05-06 15:54 57.77860 20.37364 34966 ft 463 kts 14°
2026-05-06 15:54 57.83997 20.41056 34966 ft 463 kts 14°
2026-05-06 15:55 57.90121 20.44753 34966 ft 463 kts 14°
2026-05-06 15:55 57.96256 20.48470 34966 ft 463 kts 14°
2026-05-06 15:56 58.02376 20.52192 34966 ft 463 kts 14°
2026-05-06 15:56 58.08494 20.55925 34966 ft 463 kts 14°
2026-05-06 15:57 58.14638 20.59688 34966 ft 463 kts 14°
2026-05-06 15:57 58.20775 20.63460 34966 ft 464 kts 14°
2026-05-06 15:58 58.26920 20.67249 34966 ft 464 kts 14°
2026-05-06 15:58 58.33058 20.71046 34966 ft 464 kts 14°
2026-05-06 15:59 58.39207 20.74866 34966 ft 464 kts 14°
2026-05-06 15:59 58.45322 20.78678 34966 ft 464 kts 14°
2026-05-06 16:00 58.51449 20.82513 34966 ft 464 kts 14°
2026-05-06 16:00 58.57566 20.86356 34966 ft 464 kts 14°
2026-05-06 16:01 58.63715 20.90233 34966 ft 464 kts 14°
2026-05-06 16:01 58.69801 20.94089 34965 ft 461 kts 14°
2026-05-06 16:02 58.75840 20.97931 34970 ft 458 kts 14°
2026-05-06 16:02 58.81870 21.01782 34985 ft 456 kts 14°
2026-05-06 16:03 58.87865 21.05624 34996 ft 454 kts 15°
2026-05-06 16:03 58.93856 21.09477 34997 ft 454 kts 14°
2026-05-06 16:04 58.99794 21.13712 34991 ft 462 kts 22°
2026-05-06 16:04 59.05112 21.20981 34992 ft 478 kts 44°
2026-05-06 16:05 59.08880 21.31697 35002 ft 485 kts 60°
2026-05-06 16:05 59.11927 21.43450 35003 ft 484 kts 60°
2026-05-06 16:06 59.14970 21.55143 35010 ft 483 kts 60°
2026-05-06 16:06 59.17999 21.66906 35014 ft 484 kts 61°
2026-05-06 16:07 59.20967 21.78503 35019 ft 484 kts 61°
2026-05-06 16:07 59.23933 21.90170 35020 ft 484 kts 62°
2026-05-06 16:08 59.26919 22.01996 35020 ft 484 kts 62°
2026-05-06 16:08 59.29875 22.13775 35020 ft 484 kts 62°
2026-05-06 16:09 59.32838 22.25645 35019 ft 484 kts 62°
2026-05-06 16:09 59.35779 22.37498 35020 ft 484 kts 62°
2026-05-06 16:10 59.38716 22.49397 35020 ft 484 kts 62°
2026-05-06 16:10 59.41633 22.61281 35020 ft 484 kts 62°
2026-05-06 16:11 59.44497 22.72999 35020 ft 484 kts 62°
2026-05-06 16:11 59.47273 22.84407 35020 ft 484 kts 62°
2026-05-06 16:12 59.50102 22.96114 35019 ft 480 kts 62°
2026-05-06 16:12 59.52967 23.08048 35019 ft 476 kts 62°
2026-05-06 16:13 59.55610 23.20063 35019 ft 478 kts 69°
2026-05-06 16:13 59.57603 23.32585 35021 ft 480 kts 70°
2026-05-06 16:14 59.59601 23.45169 35020 ft 480 kts 70°
2026-05-06 16:14 59.61581 23.57697 35020 ft 480 kts 70°
2026-05-06 16:15 59.63566 23.70331 35020 ft 479 kts 71°
2026-05-06 16:15 59.65544 23.82981 35020 ft 480 kts 71°
2026-05-06 16:16 59.67504 23.95621 35020 ft 480 kts 71°
2026-05-06 16:16 59.69450 24.08266 35020 ft 480 kts 71°
2026-05-06 16:17 59.71389 24.20959 35020 ft 480 kts 71°
2026-05-06 16:17 59.73302 24.33584 35020 ft 480 kts 71°
2026-05-06 16:18 59.75202 24.46244 35019 ft 480 kts 72°
2026-05-06 16:18 59.76883 24.59144 35020 ft 480 kts 74°
2026-05-06 16:19 59.78481 24.71897 35020 ft 480 kts 74°
2026-05-06 16:19 59.80087 24.84655 35020 ft 480 kts 74°
2026-05-06 16:20 59.81682 24.97435 35020 ft 480 kts 75°
2026-05-06 16:20 59.83274 25.10279 35010 ft 477 kts 75°
2026-05-06 16:21 59.84845 25.23091 34994 ft 472 kts 75°
2026-05-06 16:21 59.86377 25.35703 34993 ft 472 kts 75°
2026-05-06 16:22 59.87915 25.48457 34993 ft 473 kts 75°
2026-05-06 16:22 59.89446 25.61257 34992 ft 473 kts 75°
2026-05-06 16:23 59.90953 25.73953 34993 ft 472 kts 76°
2026-05-06 16:23 59.92454 25.86696 34993 ft 472 kts 76°
2026-05-06 16:24 59.93946 25.99495 34991 ft 473 kts 76°
2026-05-06 16:24 59.95419 26.12245 34981 ft 473 kts 76°
2026-05-06 16:25 59.96889 26.25098 34971 ft 473 kts 76°
2026-05-06 16:25 59.98336 26.37870 34966 ft 472 kts 76°
2026-05-06 16:26 59.99772 26.50675 34965 ft 473 kts 76°
2026-05-06 16:26 60.01200 26.63519 34965 ft 473 kts 76°
2026-05-06 16:27 60.02626 26.76454 34966 ft 473 kts 77°
2026-05-06 16:27 60.04004 26.89293 34965 ft 473 kts 79°
2026-05-06 16:28 60.04689 27.02484 34964 ft 474 kts 89°
2026-05-06 16:28 60.04334 27.15641 34967 ft 474 kts 92°
2026-05-06 16:29 60.03925 27.28884 34965 ft 473 kts 92°
2026-05-06 16:29 60.03489 27.42005 34965 ft 474 kts 92°
2026-05-06 16:30 60.03105 27.52947 34965 ft 474 kts 92°
2026-05-06 16:30 60.02544 27.68279 34965 ft 474 kts 93°
2026-05-06 16:31 60.02052 27.81290 34966 ft 474 kts 93°
2026-05-06 16:31 60.01541 27.94375 34966 ft 474 kts 93°
2026-05-06 16:32 60.01016 28.07450 34966 ft 474 kts 93°
2026-05-06 16:32 60.00476 28.20531 34966 ft 474 kts 93°
2026-05-06 16:33 59.99921 28.33663 34965 ft 474 kts 93°
2026-05-06 16:34 59.99060 28.53410 34965 ft 474 kts 93°
2026-05-06 16:34 59.98475 28.66459 34965 ft 474 kts 94°
2026-05-06 16:35 59.97886 28.79043 34965 ft 474 kts 96°
2026-05-06 16:35 59.96658 28.91245 34982 ft 475 kts 102°
2026-05-06 16:36 59.95161 29.03774 35009 ft 476 kts 101°
2026-05-06 16:36 59.93649 29.16558 35020 ft 476 kts 101°
2026-05-06 16:37 59.92133 29.29263 35019 ft 476 kts 101°
2026-05-06 16:37 59.90593 29.42061 35019 ft 475 kts 101°
2026-05-06 16:38 59.89047 29.54788 35019 ft 475 kts 101°
2026-05-06 16:38 59.87507 29.67364 35019 ft 475 kts 102°